{"data":{"norad_id":68066,"intl_designator":"2026-041AC","name":"STARLINK-36976","alt_names":[],"object_type":"PAYLOAD","status":"ACTIVE","operator":null,"country":"US","launch_date":"2026-03-02","launch_site_code":"AFETR","launch_vehicle":null,"mission":null,"orbit_class":"UNKNOWN","rcs_meters":null,"size_class":null,"mass_kg":null,"dimensions":null,"purposes":["comms"],"wikipedia_slug":null,"has_3d_model":false,"image_url":null,"decayed_at":null,"tle_current":{"epoch":"2026-05-25T04:00:03.998880Z","epoch_age_seconds":50820,"freshness":"FRESH","line1":"1 68066U 26041AC  26145.16671295  .00059960  00000+0  17739-2 0  9991","line2":"2 68066  53.1596  52.6647 0000722  85.4552 330.4149 15.34358986  5525","mean_motion":15.34358986,"eccentricity":7.22e-5,"inclination_deg":53.1596,"raan_deg":52.6647,"arg_perigee_deg":85.4552,"mean_anomaly_deg":330.4149,"bstar":0.0017739,"rev_number":552,"period_min":93.850266667647,"perigee_km":462.33122770694,"apogee_km":463.3190626407,"semimajor_km":6840.9621451738,"source":"CELESTRAK","updated_at":"2026-05-25T13:38:21.816165Z"}}}